Lid_Strength_Index
-2 -2 -2 -1 -1 -1 -1 -1 1 1 0 0 1 3 3 3 3 5 7 5 3 1 2 5 5 6 7 8 7 8 12 14 14 16 14 13 11 8 7 8 7 6 7 5 3
-2 -2 -2 -1 -1 -1 -1 -1 1 1 0 2 1 2 3 3 5 6 4 3 2 1 5 5 7 7 9 9 9 10 12 12 13 14 15 13 12 11 9 8 7 6 5 4 2
-2 -2 -2 -2 -1 -1 -1 -1 0 0 1 2 2 2 3 4 8 8 3 2 2 2 4 5 6 7 10 9 10 10 12 13 12 12 13 12 12 11 11 12 10 7 8 6 5
-1 -2 -2 -1 -1 -1 -1 -1 -1 1 2 2 2 1 2 5 13 7 3 3 2 3 5 6 7 9 11 11 10 13 11 12 11 11 12 12 11 12 12 13 9 7 7 7 7
-1 -2 -1 -0 -1 -1 -1 -1 -0 2 2 2 2 1 3 9 9 6 3 3 4 6 7 6 7 9 10 10 10 12 12 11 11 11 11 10 12 12 12 10 9 8 7 8 8
-1 -1 -0 -1 -0 -0 -1 -1 1 2 2 2 1 1 5 12 6 5 5 4 4 6 8 7 6 7 9 10 11 10 11 12 11 11 11 11 12 11 11 9 10 9 9 8 8
-1 -1 -1 -0 0 -0 -1 -1 1 2 1 1 1 2 7 9 5 5 3 3 4 4 8 6 6 7 8 10 9 10 11 12 12 12 12 12 13 13 11 9 10 11 11 10 9
-0 -0 -0 0 0 -0 -0 -1 -1 1 1 0 2 4 9 5 5 5 4 3 3 4 5 5 4 6 8 8 9 11 12 14 11 12 11 12 15 13 10 10 11 12 11 11 10
1 -0 0 0 -0 -1 -1 -1 -1 0 1 1 4 7 10 4 6 5 4 4 5 5 5 4 5 8 8 11 12 11 15 14 13 11 12 12 13 12 11 10 11 11 12 12 12
0 0 0 0 0 -0 -1 -1 -1 1 2 2 3 11 7 7 5 5 5 3 6 6 7 7 9 10 11 12 17 15 15 14 14 11 12 14 14 12 11 11 11 11 12 12 12
1 1 0 1 1 0 3 4 6 5 6 9 9 9 7 5 4 6 5 5 6 8 11 10 12 14 11 10 10 11 13 14 12 11 12 13 13 12 11 12 12 11 11 11 11
1 2 2 1 1 1 4 7 7 7 8 5 6 7 6 6 8 7 5 8 9 12 10 11 14 11 9 9 11 12 14 15 12 11 12 12 12 11 11 11 11 11 10 10 11
2 2 2 2 2 5 7 7 5 4 9 7 5 6 7 7 9 8 7 8 10 12 11 13 11 9 10 11 12 13 14 13 13 12 12 14 15 14 11 10 10 10 10 9 10
3 2 2 2 5 6 8 7 6 5 15 10 8 6 6 7 10 7 7 9 10 12 12 12 10 10 11 12 12 14 11 12 12 14 18 14 20 15 13 12 11 10 10 9 10
4 2 1 2 7 8 7 6 6 7 22 9 8 4 6 9 9 8 6 9 12 11 11 13 12 12 12 12 11 13 11 12 13 14 16 17 18 16 14 13 12 11 10 10 10
5 4 3 5 7 7 6 6 7 17 20 13 9 9 11 10 9 8 8 7 8 11 11 11 10 11 11 10 11 10 12 13 14 15 22 17 18 18 16 13 12 11 11 10 10
5 5 6 6 9 5 6 8 17 22 13 14 12 10 11 12 10 10 11 12 13 14 14 13 12 11 10 12 11 12 14 20 21 22 21 16 17 16 13 12 11 11 11 11 10
6 6 7 8 8 6 7 13 23 18 15 10 12 11 13 12 13 12 13 14 12 13 14 15 16 11 10 11 12 13 14 18 22 21 19 16 18 15 12 12 11 11 11 11 11
6 11 11 10 8 7 11 20 19 15 11 11 11 16 15 12 12 13 14 14 12 11 14 15 15 11 10 9 9 12 15 12 16 19 19 18 16 14 13 13 13 12 12 12 11
12 12 12 9 9 10 15 18 15 10 9 9 14 12 17 14 15 14 14 13 12 11 10 12 16 12 10 9 10 11 10 15 15 22 22 19 18 16 15 14 13 13 13 12 12
13 15 12 10 10 13 18 19 14 10 10 11 12 13 12 13 13 15 14 13 12 12 11 11 13 15 11 12 13 12 13 13 13 15 19 20 19 15 14 13 13 13 13 12 13
15 22 12 11 18 19 19 15 12 12 11 11 11 12 12 11 13 13 13 12 10 11 13 12 13 17 15 11 10 11 12 12 16 17 16 16 17 13 13 12 13 12 12 12 12
18 19 12 12 24 19 20 16 15 13 13 13 13 11 11 12 15 12 11 9 9 10 12 11 17 22 18 16 14 13 12 11 11 13 15 18 16 13 13 13 12 12 12 11 12
20 23 19 17 21 22 23 21 19 14 13 12 12 11 12 13 12 14 12 9 9 9 6 8 13 16 18 17 15 15 13 12 12 16 15 15 14 12 12 12 12 12 12 11 11
19 23 20 24 22 19 19 20 19 20 16 13 13 13 13 17 16 15 12 11 9 8 9 9 17 15 13 13 14 14 14 14 13 13 15 14 13 12 10 10 9 11 11 12 12
19 20 21 22 18 20 18 24 19 17 17 19 19 13 13 14 15 16 13 12 11 10 11 10 14 13 14 12 12 14 12 12 13 13 13 13 13 10 9 11 12 10 10 12 11
16 16 18 18 19 20 22 19 18 16 15 15 15 16 16 14 14 13 12 12 11 13 14 13 13 14 16 14 13 16 14 12 13 12 12 15 12 10 11 11 11 10 11 12 10